| time (UTC) | temp C | wind direction | speed KPH | gust KPH | rain 1hr cm | rain 24hr cm | rain mn cm | humidity % | barometer mb |
| 20260506145941 | 14 | 274 | 0.0 | 0.0 | 0.00 | 0.00 | 0.00 | 84 | 1025.4 |
| 20260506145540 | 14 | 270 | 0.0 | 0.0 | 0.00 | 0.00 | 0.00 | 84 | 1025.4 |
| 20260506145140 | 14 | 301 | 0.0 | 0.0 | 0.00 | 0.00 | 0.00 | 84 | 1025.4 |
| 20260506144740 | 13 | 292 | 0.0 | 0.0 | 0.00 | 0.00 | 0.00 | 84 | 1025.3 |
| 20260506144340 | 13 | 200 | 0.0 | 0.0 | 0.00 | 0.00 | 0.00 | 84 | 1025.2 |
| 20260506143941 | 13 | 281 | 0.0 | 0.0 | 0.00 | 0.00 | 0.00 | 84 | 1025.4 |
| 20260506143540 | 13 | 274 | 0.0 | 0.0 | 0.00 | 0.00 | 0.00 | 84 | 1025.3 |
| 20260506143139 | 13 | 292 | 0.0 | 0.0 | 0.00 | 0.00 | 0.00 | 84 | 1025.3 |
| 20260506142739 | 13 | 0 | 0.0 | 0.0 | 0.00 | 0.00 | 0.00 | 84 | 1025.3 |
| 20260506142339 | 13 | 0 | 0.0 | 0.0 | 0.00 | 0.00 | 0.00 | 84 | 1025.2 |
| 20260506141939 | 13 | 324 | 0.0 | 0.0 | 0.00 | 0.00 | 0.00 | 84 | 1025.1 |
| 20260506141539 | 13 | 225 | 0.0 | 0.0 | 0.00 | 0.00 | 0.00 | 84 | 1025.2 |
| 20260506140739 | 13 | 315 | 0.0 | 0.0 | 0.00 | 0.00 | 0.00 | 84 | 1025.0 |
| 20260506140338 | 13 | 315 | 0.0 | 0.0 | 0.00 | 0.00 | 0.00 | 83 | 1025.0 |
| 20260506135538 | 13 | 270 | 0.0 | 0.0 | 0.00 | 0.00 | 0.00 | 83 | 1024.9 |
| 20260506135138 | 13 | 225 | 0.0 | 0.0 | 0.00 | 0.00 | 0.00 | 83 | 1024.9 |
| 20260506134738 | 13 | 225 | 0.0 | 0.0 | 0.00 | 0.00 | 0.00 | 83 | 1024.9 |
| 20260506134338 | 13 | 225 | 0.0 | 0.0 | 0.00 | 0.00 | 0.00 | 82 | 1024.8 |
| 20260506133938 | 13 | 225 | 0.0 | 0.0 | 0.00 | 0.00 | 0.00 | 83 | 1024.7 |
| 20260506133537 | 13 | 225 | 0.0 | 0.0 | 0.00 | 0.00 | 0.00 | 83 | 1024.7 |
| 20260506133137 | 13 | 135 | 0.0 | 0.0 | 0.00 | 0.00 | 0.00 | 83 | 1024.8 |
| 20260506132737 | 13 | 135 | 0.0 | 0.0 | 0.00 | 0.00 | 0.00 | 83 | 1024.8 |
| 20260506132337 | 13 | 135 | 0.0 | 0.0 | 0.00 | 0.00 | 0.00 | 82 | 1024.6 |
| 20260506131937 | 13 | 135 | 0.0 | 0.0 | 0.00 | 0.00 | 0.00 | 82 | 1024.5 |
| 20260506131537 | 13 | 45 | 0.0 | 0.0 | 0.00 | 0.00 | 0.00 | 82 | 1024.6 |
| 20260506131137 | 13 | 45 | 0.0 | 0.0 | 0.00 | 0.00 | 0.00 | 82 | 1024.6 |
| 20260506130736 | 13 | 45 | 0.0 | 0.0 | 0.00 | 0.00 | 0.00 | 82 | 1024.4 |
| 20260506130336 | 13 | 45 | 0.0 | 0.0 | 0.00 | 0.00 | 0.00 | 82 | 1024.5 |
| 20260506125936 | 13 | 45 | 0.0 | 0.0 | 0.00 | 0.00 | 0.00 | 82 | 1024.4 |
| 20260506125536 | 13 | 0 | 0.0 | 0.0 | 0.00 | 0.00 | 0.00 | 82 | 1024.5 |
| 20260506125136 | 13 | 45 | 0.0 | 0.0 | 0.00 | 0.00 | 0.00 | 81 | 1024.4 |
| 20260506124737 | 13 | 45 | 0.0 | 0.0 | 0.00 | 0.00 | 0.00 | 81 | 1024.5 |
| 20260506124336 | 13 | 45 | 0.0 | 0.0 | 0.00 | 0.00 | 0.00 | 81 | 1024.4 |
| 20260506123935 | 13 | 45 | 0.0 | 0.0 | 0.00 | 0.00 | 0.00 | 81 | 1024.4 |
| 20260506123536 | 13 | 45 | 0.0 | 0.0 | 0.00 | 0.00 | 0.00 | 82 | 1024.4 |
| 20260506123135 | 13 | 45 | 0.0 | 0.0 | 0.00 | 0.00 | 0.00 | 81 | 1024.5 |
| 20260506122735 | 13 | 45 | 0.0 | 0.0 | 0.00 | 0.00 | 0.00 | 81 | 1024.4 |
| 20260506122335 | 13 | 45 | 0.0 | 0.0 | 0.00 | 0.00 | 0.00 | 81 | 1024.4 |
| 20260506121935 | 13 | 45 | 0.0 | 0.0 | 0.00 | 0.00 | 0.00 | 81 | 1024.4 |
| 20260506121535 | 13 | 45 | 0.0 | 0.0 | 0.00 | 0.00 | 0.00 | 81 | 1024.4 |
| 20260506121134 | 13 | 45 | 0.0 | 0.0 | 0.00 | 0.00 | 0.00 | 81 | 1024.4 |
| 20260506120734 | 13 | 45 | 0.0 | 0.0 | 0.00 | 0.00 | 0.00 | 81 | 1024.3 |
| 20260506120334 | 13 | 45 | 0.0 | 0.0 | 0.00 | 0.00 | 0.00 | 81 | 1024.3 |
| 20260506115934 | 13 | 90 | 0.0 | 0.0 | 0.00 | 0.00 | 0.00 | 81 | 1024.4 |
| 20260506115534 | 13 | 45 | 0.0 | 0.0 | 0.00 | 0.00 | 0.00 | 81 | 1024.3 |
| 20260506115134 | 13 | 45 | 0.0 | 0.0 | 0.00 | 0.00 | 0.00 | 81 | 1024.2 |
| 20260506114734 | 13 | 45 | 0.0 | 0.0 | 0.00 | 0.00 | 0.00 | 81 | 1024.3 |
| 20260506114333 | 13 | 45 | 0.0 | 0.0 | 0.00 | 0.00 | 0.00 | 81 | 1024.2 |
| 20260506113933 | 13 | 58 | 0.0 | 0.0 | 0.00 | 0.00 | 0.00 | 81 | 1024.2 |
| 20260506113533 | 13 | 45 | 0.0 | 0.0 | 0.00 | 0.00 | 0.00 | 81 | 1024.2 |
| 20260506113133 | 13 | 45 | 0.0 | 0.0 | 0.00 | 0.00 | 0.00 | 81 | 1024.1 |
| 20260506112733 | 13 | 45 | 0.0 | 0.0 | 0.00 | 0.00 | 0.00 | 81 | 1024.2 |
| 20260506112333 | 13 | 45 | 0.0 | 0.0 | 0.00 | 0.00 | 0.00 | 81 | 1024.1 |
| 20260506111933 | 13 | 45 | 0.0 | 0.0 | 0.00 | 0.00 | 0.00 | 81 | 1024.1 |
| 20260506111532 | 13 | 45 | 0.0 | 0.0 | 0.00 | 0.00 | 0.00 | 81 | 1024.0 |
| 20260506111132 | 13 | 45 | 0.0 | 0.0 | 0.00 | 0.00 | 0.00 | 81 | 1024.1 |
| 20260506110732 | 13 | 45 | 0.0 | 0.0 | 0.00 | 0.00 | 0.00 | 81 | 1024.0 |
| 20260506110332 | 13 | 45 | 0.0 | 0.0 | 0.00 | 0.00 | 0.00 | 81 | 1023.9 |
| 20260506105932 | 13 | 0 | 0.0 | 0.0 | 0.00 | 0.00 | 0.00 | 81 | 1023.9 |
| 20260506105532 | 13 | 45 | 0.0 | 0.0 | 0.00 | 0.00 | 0.00 | 81 | 1023.9 |
| 20260506105132 | 13 | 45 | 0.0 | 0.0 | 0.00 | 0.00 | 0.00 | 81 | 1023.8 |
| 20260506104732 | 13 | 45 | 0.0 | 0.0 | 0.00 | 0.00 | 0.00 | 81 | 1023.8 |
| 20260506104332 | 13 | 54 | 0.0 | 0.0 | 0.00 | 0.00 | 0.00 | 80 | 1023.8 |
| 20260506103931 | 13 | 45 | 0.0 | 0.0 | 0.00 | 0.00 | 0.00 | 80 | 1023.7 |
| 20260506103531 | 13 | 45 | 0.0 | 0.0 | 0.00 | 0.00 | 0.00 | 80 | 1023.7 |
| 20260506103131 | 13 | 45 | 0.0 | 0.0 | 0.00 | 0.00 | 0.00 | 80 | 1023.7 |
| 20260506102731 | 13 | 87 | 0.0 | 0.0 | 0.00 | 0.00 | 0.00 | 80 | 1023.7 |
| 20260506102331 | 13 | 0 | 0.0 | 0.0 | 0.00 | 0.00 | 0.00 | 80 | 1023.7 |
| 20260506101931 | 13 | 45 | 0.0 | 0.0 | 0.00 | 0.00 | 0.00 | 80 | 1023.8 |
| 20260506101530 | 13 | 45 | 0.0 | 0.0 | 0.00 | 0.00 | 0.00 | 80 | 1023.8 |
| 20260506101130 | 13 | 45 | 0.0 | 0.0 | 0.00 | 0.00 | 0.00 | 81 | 1023.6 |
| 20260506100730 | 13 | 45 | 0.0 | 0.0 | 0.00 | 0.00 | 0.00 | 80 | 1023.5 |
| 20260506100331 | 13 | 45 | 0.0 | 0.0 | 0.00 | 0.00 | 0.00 | 81 | 1023.6 |
| 20260506095130 | 13 | 45 | 0.0 | 0.0 | 0.00 | 0.00 | 0.00 | 81 | 1023.4 |
| 20260506094729 | 13 | 0 | 0.0 | 0.0 | 0.00 | 0.00 | 0.00 | 81 | 1023.4 |
| 20260506094329 | 13 | 24 | 0.0 | 0.0 | 0.00 | 0.00 | 0.00 | 81 | 1023.3 |
| 20260506093929 | 13 | 324 | 0.0 | 0.0 | 0.00 | 0.00 | 0.00 | 81 | 1023.3 |
| 20260506093529 | 13 | 45 | 0.0 | 0.0 | 0.00 | 0.00 | 0.00 | 80 | 1023.2 |
| 20260506093129 | 13 | 0 | 0.0 | 0.0 | 0.00 | 0.00 | 0.00 | 80 | 1023.3 |
| 20260506092729 | 13 | 0 | 0.0 | 0.0 | 0.00 | 0.00 | 0.00 | 79 | 1023.2 |
| 20260506092329 | 13 | 315 | 0.0 | 0.0 | 0.00 | 0.00 | 0.00 | 79 | 1023.1 |
| 20260506091528 | 13 | 315 | 0.0 | 0.0 | 0.00 | 0.00 | 0.00 | 78 | 1023.2 |
| 20260506091128 | 13 | 315 | 0.0 | 0.0 | 0.00 | 0.00 | 0.00 | 79 | 1023.2 |
| 20260506090728 | 13 | 315 | 0.0 | 0.0 | 0.00 | 0.00 | 0.00 | 79 | 1023.3 |
| 20260506090328 | 13 | 315 | 0.0 | 0.0 | 0.00 | 0.00 | 0.00 | 79 | 1023.2 |
| 20260506085928 | 13 | 315 | 0.0 | 0.0 | 0.00 | 0.00 | 0.00 | 79 | 1023.3 |
| 20260506085528 | 13 | 315 | 0.0 | 0.0 | 0.00 | 0.00 | 0.00 | 79 | 1023.3 |
| 20260506085128 | 13 | 315 | 0.0 | 0.0 | 0.00 | 0.00 | 0.00 | 79 | 1023.3 |
| 20260506084727 | 13 | 315 | 0.0 | 0.0 | 0.00 | 0.00 | 0.00 | 79 | 1023.3 |
| 20260506084304 | 14 | 315 | 0.0 | 0.0 | 0.00 | 0.00 | 0.00 | 79 | 1023.4 |
| 20260506083927 | 14 | 315 | 0.0 | 0.0 | 0.00 | 0.00 | 0.00 | 79 | 1023.4 |
| 20260506083527 | 14 | 315 | 0.0 | 0.0 | 0.00 | 0.00 | 0.00 | 79 | 1023.5 |
| 20260506083127 | 14 | 315 | 0.0 | 0.0 | 0.00 | 0.00 | 0.00 | 79 | 1023.6 |
| 20260506082727 | 14 | 315 | 0.0 | 0.0 | 0.00 | 0.00 | 0.00 | 79 | 1023.6 |
| 20260506082326 | 14 | 315 | 0.0 | 0.0 | 0.00 | 0.00 | 0.00 | 79 | 1023.6 |
| 20260506081926 | 14 | 315 | 0.0 | 0.0 | 0.00 | 0.00 | 0.00 | 79 | 1023.7 |
| 20260506081526 | 14 | 315 | 0.0 | 0.0 | 0.00 | 0.00 | 0.00 | 79 | 1023.8 |
| 20260506081126 | 14 | 315 | 0.0 | 0.0 | 0.00 | 0.00 | 0.00 | 79 | 1023.8 |
| 20260506080726 | 14 | 315 | 0.0 | 0.0 | 0.00 | 0.00 | 0.00 | 80 | 1023.8 |
| 20260506080326 | 14 | 315 | 0.0 | 0.0 | 0.00 | 0.00 | 0.00 | 80 | 1023.7 |
| 20260506073525 | 14 | 315 | 0.0 | 0.0 | 0.00 | 0.00 | 0.00 | 80 | 1023.4 |
| 20260506073125 | 14 | 315 | 0.0 | 0.0 | 0.00 | 0.00 | 0.00 | 80 | 1023.4 |
| 20260506072725 | 14 | 0 | 0.0 | 0.0 | 0.00 | 0.00 | 0.00 | 80 | 1023.4 |
| 20260506072324 | 14 | 45 | 0.0 | 0.0 | 0.00 | 0.00 | 0.00 | 80 | 1023.2 |
| 20260506071924 | 14 | 270 | 0.0 | 0.0 | 0.00 | 0.00 | 0.00 | 80 | 1023.3 |
| 20260506071524 | 14 | 0 | 0.0 | 0.0 | 0.00 | 0.00 | 0.00 | 79 | 1023.3 |
| 20260506071124 | 14 | 333 | 0.0 | 0.0 | 0.00 | 0.00 | 0.00 | 80 | 1023.1 |
| 20260506070724 | 14 | 339 | 0.0 | 0.0 | 0.00 | 0.00 | 0.00 | 80 | 1023.1 |
| 20260506070324 | 15 | 324 | 0.0 | 0.0 | 0.00 | 0.00 | 0.00 | 80 | 1023.1 |
| 20260506061922 | 15 | 348 | 0.0 | 0.0 | 0.00 | 0.00 | 0.00 | 78 | 1022.6 |
| 20260506061522 | 15 | 315 | 0.0 | 0.0 | 0.00 | 0.00 | 0.00 | 78 | 1022.5 |
| 20260506061122 | 15 | 315 | 0.0 | 0.0 | 0.00 | 0.00 | 0.00 | 78 | 1022.5 |
| 20260506060722 | 15 | 315 | 0.0 | 0.0 | 0.00 | 0.00 | 0.00 | 78 | 1022.4 |
| 20260506060321 | 15 | 270 | 0.0 | 0.0 | 0.00 | 0.00 | 0.00 | 78 | 1022.3 |
| 20260506050717 | 16 | 270 | 0.0 | 0.0 | 0.00 | 0.00 | 0.00 | 75 | 1022.0 |
| 20260506045117 | 16 | 270 | 0.0 | 0.0 | 0.00 | 0.00 | 0.00 | 75 | 1021.8 |
| 20260506044717 | 16 | 238 | 0.0 | 0.0 | 0.00 | 0.00 | 0.00 | 75 | 1021.8 |
| 20260506044317 | 16 | 225 | 0.0 | 0.0 | 0.00 | 0.00 | 0.00 | 75 | 1021.8 |
| 20260506043916 | 16 | 256 | 0.0 | 3.2 | 0.00 | 0.00 | 0.00 | 75 | 1021.8 |
| 20260506043516 | 16 | 270 | 0.0 | 0.0 | 0.00 | 0.00 | 0.00 | 75 | 1021.6 |
| 20260506043116 | 16 | 315 | 0.0 | 1.6 | 0.00 | 0.00 | 0.00 | 75 | 1021.7 |
| 20260506042716 | 16 | 315 | 0.0 | 0.0 | 0.00 | 0.00 | 0.00 | 75 | 1021.4 |
| 20260506041916 | 17 | 270 | 0.0 | 0.0 | 0.00 | 0.00 | 0.00 | 75 | 1021.4 |
| 20260506041115 | 17 | 276 | 0.0 | 0.0 | 0.00 | 0.00 | 0.00 | 74 | 1021.2 |
| 20260506040715 | 17 | 294 | 0.0 | 0.0 | 0.00 | 0.00 | 0.00 | 74 | 1021.2 |
| 20260506040315 | 17 | 312 | 0.0 | 0.0 | 0.00 | 0.00 | 0.00 | 74 | 1021.2 |
| 20260506035915 | 17 | 315 | 0.0 | 0.0 | 0.00 | 0.00 | 0.00 | 74 | 1021.0 |
| 20260506035515 | 17 | 303 | 0.0 | 0.0 | 0.00 | 0.00 | 0.00 | 74 | 1021.2 |
| 20260506035114 | 17 | 270 | 0.0 | 0.0 | 0.00 | 0.00 | 0.00 | 74 | 1021.1 |
| 20260506034714 | 17 | 292 | 0.0 | 0.0 | 0.00 | 0.00 | 0.00 | 73 | 1021.0 |
| 20260506034313 | 17 | 236 | 0.0 | 0.0 | 0.00 | 0.00 | 0.00 | 73 | 1021.0 |
| 20260506033913 | 17 | 315 | 0.0 | 3.2 | 0.00 | 0.00 | 0.00 | 73 | 1021.0 |
| 20260506033514 | 17 | 346 | 1.6 | 1.6 | 0.00 | 0.00 | 0.00 | 73 | 1020.9 |
| 20260506032713 | 17 | 315 | 0.0 | 0.0 | 0.00 | 0.00 | 0.00 | 73 | 1020.8 |
| 20260506032313 | 17 | 315 | 0.0 | 0.0 | 0.00 | 0.00 | 0.00 | 73 | 1020.8 |
| 20260506031913 | 17 | 348 | 0.0 | 0.0 | 0.00 | 0.00 | 0.00 | 73 | 1020.7 |
| 20260506031112 | 17 | 315 | 0.0 | 0.0 | 0.00 | 0.00 | 0.00 | 72 | 1020.7 |
| 20260506030712 | 17 | 270 | 0.0 | 0.0 | 0.00 | 0.00 | 0.00 | 72 | 1020.6 |
| 20260506030312 | 17 | 306 | 0.0 | 0.0 | 0.00 | 0.00 | 0.00 | 72 | 1020.6 |
| 20260506025912 | 17 | 351 | 0.0 | 0.0 | 0.00 | 0.00 | 0.00 | 72 | 1020.6 |
| 20260506025512 | 17 | 292 | 0.0 | 0.0 | 0.00 | 0.00 | 0.00 | 72 | 1020.6 |
| 20260506025112 | 18 | 319 | 0.0 | 0.0 | 0.00 | 0.00 | 0.00 | 72 | 1020.6 |
| 20260506024711 | 18 | 315 | 0.0 | 0.0 | 0.00 | 0.00 | 0.00 | 72 | 1020.5 |
| 20260506024311 | 18 | 330 | 0.0 | 0.0 | 0.00 | 0.00 | 0.00 | 72 | 1020.5 |
| 20260506023911 | 18 | 262 | 0.0 | 0.0 | 0.00 | 0.00 | 0.00 | 72 | 1020.4 |
| 20260506023511 | 18 | 274 | 0.0 | 0.0 | 0.00 | 0.00 | 0.00 | 71 | 1020.3 |
| 20260506023111 | 18 | 208 | 0.0 | 0.0 | 0.00 | 0.00 | 0.00 | 71 | 1020.4 |
| 20260506022711 | 18 | 209 | 0.0 | 3.2 | 0.00 | 0.00 | 0.00 | 72 | 1020.3 |
| 20260506022311 | 18 | 301 | 0.0 | 0.0 | 0.00 | 0.00 | 0.00 | 72 | 1020.2 |
| 20260506021911 | 18 | 337 | 0.0 | 1.6 | 0.00 | 0.00 | 0.00 | 72 | 1020.3 |
| 20260506021510 | 18 | 292 | 0.0 | 3.2 | 0.00 | 0.00 | 0.00 | 72 | 1020.2 |
| 20260506021110 | 18 | 315 | 0.0 | 0.0 | 0.00 | 0.00 | 0.00 | 72 | 1020.2 |
| 20260506020711 | 18 | 315 | 0.0 | 0.0 | 0.00 | 0.00 | 0.00 | 71 | 1020.1 |
| 20260506020310 | 18 | 315 | 0.0 | 0.0 | 0.00 | 0.00 | 0.00 | 71 | 1020.1 |
| 20260506015510 | 18 | 192 | 0.0 | 0.0 | 0.00 | 0.00 | 0.00 | 71 | 1020.2 |
| 20260506015110 | 18 | 281 | 0.0 | 0.0 | 0.00 | 0.00 | 0.00 | 72 | 1020.1 |
| 20260506014709 | 18 | 249 | 0.0 | 0.0 | 0.00 | 0.00 | 0.00 | 72 | 1020.1 |
| 20260506014309 | 18 | 189 | 0.0 | 8.0 | 0.00 | 0.00 | 0.00 | 71 | 1020.1 |
| 20260506013909 | 18 | 308 | 0.0 | 0.0 | 0.00 | 0.00 | 0.00 | 71 | 1020.1 |
| 20260506013509 | 18 | 288 | 0.0 | 0.0 | 0.00 | 0.00 | 0.00 | 71 | 1020.2 |
| 20260506013109 | 18 | 315 | 0.0 | 0.0 | 0.00 | 0.00 | 0.00 | 71 | 1020.1 |
| 20260506012709 | 18 | 222 | 0.0 | 0.0 | 0.00 | 0.00 | 0.00 | 71 | 1020.1 |
| 20260506012308 | 18 | 315 | 0.0 | 0.0 | 0.00 | 0.00 | 0.00 | 71 | 1020.1 |
| 20260506011908 | 18 | 236 | 0.0 | 0.0 | 0.00 | 0.00 | 0.00 | 71 | 1020.1 |
| 20260506011108 | 18 | 315 | 0.0 | 1.6 | 0.00 | 0.00 | 0.00 | 71 | 1020.2 |
| 20260506010708 | 18 | 344 | 0.0 | 0.0 | 0.00 | 0.00 | 0.00 | 71 | 1020.2 |
| 20260506010308 | 18 | 270 | 0.0 | 4.8 | 0.00 | 0.00 | 0.00 | 71 | 1020.2 |
| 20260506005908 | 18 | 207 | 0.0 | 0.0 | 0.00 | 0.00 | 0.00 | 71 | 1020.2 |
| 20260506004705 | 18 | 200 | 0.0 | 1.6 | 0.00 | 0.00 | 0.00 | 71 | 1020.2 |
| 20260506004304 | 18 | 270 | 0.0 | 0.0 | 0.00 | 0.00 | 0.00 | 71 | 1020.3 |
| 20260506003904 | 18 | 229 | 0.0 | 0.0 | 0.00 | 0.00 | 0.00 | 71 | 1020.4 |
| 20260506003504 | 18 | 234 | 0.0 | 0.0 | 0.00 | 0.00 | 0.00 | 71 | 1020.2 |
| 20260506003105 | 18 | 216 | 0.0 | 0.0 | 0.00 | 0.00 | 0.00 | 71 | 1020.2 |
| 20260506002703 | 18 | 230 | 0.0 | 0.0 | 0.00 | 0.00 | 0.00 | 71 | 1020.1 |
| 20260506002305 | 18 | 207 | 0.0 | 4.8 | 0.00 | 0.00 | 0.00 | 72 | 1020.3 |
| 20260506001903 | 19 | 213 | 0.0 | 0.0 | 0.00 | 0.00 | 0.00 | 71 | 1020.2 |
| 20260506001503 | 19 | 198 | 0.0 | 0.0 | 0.00 | 0.00 | 0.00 | 71 | 1020.2 |
| 20260506001104 | 19 | 229 | 0.0 | 0.0 | 0.00 | 0.00 | 0.00 | 72 | 1020.1 |
| 20260506000703 | 19 | 225 | 0.0 | 6.4 | 0.00 | 0.00 | 0.00 | 72 | 1020.1 |
| 20260506000303 | 19 | 267 | 0.0 | 8.0 | 0.00 | 0.00 | 0.00 | 72 | 1020.1 |
| 20260505235903 | 19 | 204 | 0.0 | 1.6 | 0.00 | 0.00 | 0.00 | 72 | 1020.0 |
| 20260505235502 | 19 | 245 | 0.0 | 4.8 | 0.00 | 0.00 | 0.00 | 72 | 1020.0 |
| 20260505235102 | 18 | 321 | 0.0 | 8.0 | 0.00 | 0.00 | 0.00 | 73 | 1019.9 |
| 20260505234702 | 18 | 229 | 8.0 | 8.0 | 0.00 | 0.00 | 0.00 | 73 | 1019.9 |
| 20260505234302 | 18 | 211 | 0.0 | 14.5 | 0.00 | 0.00 | 0.00 | 72 | 1019.9 |
| 20260505233902 | 18 | 211 | 0.0 | 1.6 | 0.00 | 0.00 | 0.00 | 73 | 1020.0 |
| 20260505233502 | 18 | 344 | 0.0 | 1.6 | 0.00 | 0.00 | 0.00 | 73 | 1020.0 |
| 20260505233102 | 18 | 227 | 1.6 | 12.9 | 0.00 | 0.00 | 0.00 | 73 | 1019.9 |
| 20260505232701 | 18 | 234 | 6.4 | 9.7 | 0.00 | 0.00 | 0.00 | 74 | 1020.0 |
| 20260505232304 | 18 | 222 | 0.0 | 11.3 | 0.00 | 0.00 | 0.00 | 74 | 1020.0 |
| 20260505231901 | 18 | 326 | 0.0 | 6.4 | 0.00 | 0.00 | 0.00 | 74 | 1020.0 |
| 20260505231501 | 18 | 315 | 0.0 | 0.0 | 0.00 | 0.00 | 0.00 | 73 | 1020.0 |
| 20260505231101 | 18 | 240 | 0.0 | 0.0 | 0.00 | 0.00 | 0.00 | 74 | 1020.0 |
| 20260505230701 | 18 | 290 | 0.0 | 0.0 | 0.00 | 0.00 | 0.00 | 75 | 1020.0 |
| 20260505230300 | 18 | 236 | 0.0 | 16.1 | 0.00 | 0.00 | 0.00 | 75 | 1020.0 |
| 20260505225900 | 18 | 308 | 0.0 | 0.0 | 0.00 | 0.00 | 0.00 | 74 | 1020.0 |
| 20260505225500 | 18 | 281 | 0.0 | 0.0 | 0.00 | 0.00 | 0.00 | 75 | 1020.0 |
| 20260505225100 | 18 | 234 | 0.0 | 0.0 | 0.00 | 0.00 | 0.00 | 75 | 1020.0 |
| 20260505224700 | 18 | 263 | 0.0 | 16.1 | 0.00 | 0.00 | 0.00 | 75 | 1020.1 |
| 20260505224300 | 18 | 225 | 0.0 | 3.2 | 0.00 | 0.00 | 0.00 | 75 | 1020.0 |
| 20260505223900 | 18 | 225 | 1.6 | 8.0 | 0.00 | 0.00 | 0.00 | 75 | 1020.1 |
| 20260505223500 | 18 | 261 | 0.0 | 16.1 | 0.00 | 0.00 | 0.00 | 76 | 1020.0 |
| 20260505222700 | 17 | 319 | 0.0 | 4.8 | 0.00 | 0.00 | 0.00 | 77 | 1020.2 |
| 20260505222259 | 17 | 325 | 0.0 | 8.0 | 0.00 | 0.00 | 0.00 | 78 | 1020.2 |
| 20260505220659 | 17 | 245 | 0.0 | 8.0 | 0.00 | 0.00 | 0.00 | 77 | 1020.5 |
| 20260505215858 | 17 | 315 | 0.0 | 12.9 | 0.00 | 0.00 | 0.00 | 78 | 1020.4 |
| 20260505215058 | 17 | 225 | 0.0 | 9.7 | 0.00 | 0.00 | 0.00 | 78 | 1020.5 |
| 20260505214658 | 17 | 225 | 0.0 | 1.6 | 0.00 | 0.00 | 0.00 | 78 | 1020.4 |
| 20260505214258 | 17 | 312 | 0.0 | 14.5 | 0.00 | 0.00 | 0.00 | 78 | 1020.6 |
| 20260505213858 | 16 | 209 | 9.7 | 14.5 | 0.00 | 0.00 | 0.00 | 79 | 1020.5 |
| 20260505213459 | 16 | 225 | 0.0 | 0.0 | 0.00 | 0.00 | 0.00 | 79 | 1020.7 |
| 20260505213057 | 16 | 22 | 0.0 | 8.0 | 0.00 | 0.00 | 0.00 | 79 | 1020.7 |
| 20260505212657 | 16 | 225 | 0.0 | 8.0 | 0.00 | 0.00 | 0.00 | 79 | 1020.6 |
| 20260505212257 | 16 | 299 | 0.0 | 0.0 | 0.00 | 0.00 | 0.00 | 78 | 1020.6 |
| 20260505211857 | 16 | 315 | 0.0 | 1.6 | 0.00 | 0.00 | 0.00 | 79 | 1020.7 |
| 20260505211457 | 16 | 247 | 0.0 | 0.0 | 0.00 | 0.00 | 0.00 | 79 | 1020.6 |
| 20260505210656 | 16 | 216 | 0.0 | 0.0 | 0.00 | 0.00 | 0.00 | 79 | 1020.6 |
| 20260505210256 | 16 | 243 | 0.0 | 1.6 | 0.00 | 0.00 | 0.00 | 79 | 1020.5 |
| 20260505205856 | 16 | 204 | 0.0 | 0.0 | 0.00 | 0.00 | 0.00 | 79 | 1020.5 |
| 20260505205456 | 16 | 198 | 0.0 | 8.0 | 0.00 | 0.00 | 0.00 | 79 | 1020.6 |
| 20260505205056 | 16 | 0 | 0.0 | 11.3 | 0.00 | 0.00 | 0.00 | 79 | 1020.6 |
| 20260505204657 | 16 | 195 | 0.0 | 11.3 | 0.00 | 0.00 | 0.00 | 79 | 1020.6 |
| 20260505204256 | 16 | 204 | 8.0 | 14.5 | 0.00 | 0.00 | 0.00 | 79 | 1020.7 |
| 20260505203855 | 16 | 238 | 0.0 | 11.3 | 0.00 | 0.00 | 0.00 | 79 | 1020.7 |
| 20260505203455 | 16 | 277 | 0.0 | 0.0 | 0.00 | 0.00 | 0.00 | 80 | 1020.7 |
| 20260505203055 | 16 | 225 | 0.0 | 11.3 | 0.00 | 0.00 | 0.00 | 80 | 1020.7 |
| 20260505202655 | 16 | 222 | 4.8 | 6.4 | 0.00 | 0.00 | 0.00 | 80 | 1020.7 |
| 20260505202255 | 16 | 225 | 6.4 | 8.0 | 0.00 | 0.00 | 0.00 | 80 | 1020.8 |
| 20260505201855 | 16 | 270 | 1.6 | 1.6 | 0.00 | 0.00 | 0.00 | 80 | 1020.7 |
| 20260505201455 | 16 | 227 | 0.0 | 8.0 | 0.00 | 0.00 | 0.00 | 80 | 1020.9 |
| 20260505201054 | 16 | 310 | 4.8 | 4.8 | 0.00 | 0.00 | 0.00 | 80 | 1020.8 |
| 20260505200654 | 16 | 18 | 0.0 | 0.0 | 0.00 | 0.00 | 0.00 | 81 | 1020.7 |
| 20260505200254 | 16 | 310 | 0.0 | 8.0 | 0.00 | 0.00 | 0.00 | 81 | 1020.8 |
| 20260505195854 | 16 | 270 | 0.0 | 12.9 | 0.00 | 0.00 | 0.00 | 81 | 1020.9 |
| 20260505195054 | 16 | 213 | 0.0 | 0.0 | 0.00 | 0.00 | 0.00 | 81 | 1020.9 |
| 20260505194654 | 15 | 315 | 0.0 | 0.0 | 0.00 | 0.00 | 0.00 | 81 | 1020.9 |
| 20260505193453 | 15 | 225 | 0.0 | 3.2 | 0.00 | 0.00 | 0.00 | 81 | 1020.9 |
| 20260505193053 | 15 | 225 | 0.0 | 0.0 | 0.00 | 0.00 | 0.00 | 82 | 1021.0 |
| 20260505192653 | 15 | 252 | 3.2 | 8.0 | 0.00 | 0.00 | 0.00 | 82 | 1021.0 |
| 20260505192254 | 15 | 220 | 0.0 | 0.0 | 0.00 | 0.00 | 0.00 | 82 | 1021.0 |
| 20260505191853 | 15 | 357 | 9.7 | 12.9 | 0.00 | 0.00 | 0.00 | 82 | 1020.9 |
| 20260505191453 | 15 | 315 | 0.0 | 0.0 | 0.00 | 0.00 | 0.00 | 83 | 1020.9 |
| 20260505191052 | 15 | 0 | 0.0 | 0.0 | 0.00 | 0.00 | 0.00 | 83 | 1021.0 |
| 20260505190653 | 15 | 315 | 0.0 | 3.2 | 0.00 | 0.00 | 0.00 | 83 | 1020.8 |
| 20260505190252 | 15 | 333 | 0.0 | 0.0 | 0.00 | 0.00 | 0.00 | 83 | 1020.9 |
| 20260505185852 | 15 | 270 | 0.0 | 0.0 | 0.00 | 0.00 | 0.00 | 83 | 1021.0 |
| 20260505185052 | 15 | 0 | 0.0 | 0.0 | 0.00 | 0.00 | 0.00 | 83 | 1020.8 |
| 20260505184651 | 15 | 288 | 0.0 | 4.8 | 0.00 | 0.00 | 0.00 | 83 | 1020.9 |
| 20260505184251 | 15 | 230 | 0.0 | 6.4 | 0.00 | 0.00 | 0.00 | 83 | 1020.8 |
| 20260505183851 | 15 | 342 | 0.0 | 1.6 | 0.00 | 0.00 | 0.08 | 82 | 1020.8 |
| 20260505183051 | 15 | 335 | 0.0 | 6.4 | 0.00 | 0.00 | 0.08 | 83 | 1020.8 |
| 20260505182251 | 15 | 288 | 0.0 | 0.0 | 0.00 | 0.00 | 0.08 | 83 | 1020.8 |
| 20260505181850 | 15 | 315 | 0.0 | 11.3 | 0.00 | 0.00 | 0.08 | 83 | 1020.7 |
| 20260505181450 | 15 | 225 | 0.0 | 0.0 | 0.00 | 0.00 | 0.08 | 83 | 1020.8 |
| 20260505181050 | 15 | 263 | 3.2 | 6.4 | 0.00 | 0.00 | 0.08 | 83 | 1020.6 |
| 20260505180650 | 15 | 315 | 0.0 | 6.4 | 0.00 | 0.00 | 0.08 | 83 | 1020.5 |
| 20260505180250 | 15 | 279 | 0.0 | 6.4 | 0.00 | 0.00 | 0.08 | 83 | 1020.6 |
| 20260505175850 | 15 | 321 | 3.2 | 11.3 | 0.00 | 0.00 | 0.08 | 83 | 1020.5 |
| 20260505175450 | 15 | 287 | 3.2 | 9.7 | 0.00 | 0.00 | 0.08 | 83 | 1020.6 |
| 20260505175049 | 14 | 211 | 8.0 | 9.7 | 0.00 | 0.00 | 0.08 | 83 | 1020.6 |
| 20260505174649 | 14 | 192 | 0.0 | 11.3 | 0.00 | 0.00 | 0.08 | 83 | 1020.5 |
| 20260505173849 | 14 | 301 | 0.0 | 8.0 | 0.00 | 0.00 | 0.08 | 84 | 1020.4 |
| 20260505173449 | 14 | 218 | 0.0 | 11.3 | 0.00 | 0.00 | 0.08 | 84 | 1020.4 |
| 20260505173049 | 14 | 270 | 0.0 | 6.4 | 0.00 | 0.00 | 0.08 | 84 | 1020.3 |
| 20260505172650 | 14 | 238 | 6.4 | 8.0 | 0.00 | 0.00 | 0.08 | 84 | 1020.3 |
| 20260505172248 | 14 | 288 | 0.0 | 12.9 | 0.00 | 0.00 | 0.08 | 84 | 1020.3 |
| 20260505171849 | 14 | 211 | 6.4 | 9.7 | 0.00 | 0.00 | 0.08 | 84 | 1020.1 |
| 20260505171048 | 13 | 213 | 0.0 | 6.4 | 0.00 | 0.00 | 0.08 | 85 | 1020.2 |
| 20260505170648 | 13 | 252 | 4.8 | 6.4 | 0.00 | 0.00 | 0.08 | 84 | 1020.3 |
| 20260505170248 | 13 | 315 | 1.6 | 3.2 | 0.00 | 0.00 | 0.08 | 85 | 1020.4 |
| 20260505170131 | 13 | 263 | 0.0 | 8.0 | 0.00 | 0.00 | 0.08 | 85 | 1020.4 |
| 20260505165848 | 13 | 263 | 0.0 | 8.0 | 0.00 | 0.00 | 0.08 | 85 | 1020.4 |
| 20260505165448 | 13 | 218 | 0.0 | 9.7 | 0.00 | 0.00 | 0.08 | 85 | 1020.3 |
| 20260505165047 | 13 | 238 | 6.4 | 9.7 | 0.00 | 0.00 | 0.08 | 85 | 1020.4 |
| 20260505164647 | 13 | 222 | 4.8 | 4.8 | 0.00 | 0.00 | 0.08 | 85 | 1020.4 |
| 20260505164247 | 13 | 225 | 0.0 | 9.7 | 0.00 | 0.00 | 0.08 | 85 | 1020.3 |
| 20260505163847 | 13 | 235 | 4.8 | 8.0 | 0.00 | 0.00 | 0.08 | 85 | 1020.3 |
| 20260505163047 | 13 | 257 | 0.0 | 6.4 | 0.00 | 0.00 | 0.08 | 86 | 1020.2 |
| 20260505162646 | 13 | 270 | 0.0 | 9.7 | 0.00 | 0.00 | 0.08 | 85 | 1020.2 |
| 20260505162246 | 13 | 227 | 6.4 | 6.4 | 0.00 | 0.00 | 0.08 | 86 | 1020.4 |
| 20260505161847 | 13 | 234 | 0.0 | 0.0 | 0.00 | 0.00 | 0.08 | 86 | 1020.2 |
| 20260505161446 | 13 | 225 | 0.0 | 1.6 | 0.00 | 0.00 | 0.08 | 86 | 1020.3 |
| 20260505161046 | 13 | 180 | 0.0 | 9.7 | 0.00 | 0.00 | 0.08 | 86 | 1020.2 |
| 20260505160646 | 13 | 227 | 6.4 | 11.3 | 0.00 | 0.00 | 0.08 | 86 | 1020.1 |
| 20260505160246 | 13 | 270 | 0.0 | 4.8 | 0.00 | 0.00 | 0.08 | 86 | 1020.2 |
| 20260505153045 | 13 | 207 | 0.0 | 0.0 | 0.00 | 0.00 | 0.08 | 86 | 1020.1 |
| 20260505152644 | 13 | 204 | 0.0 | 9.7 | 0.00 | 0.00 | 0.08 | 86 | 1020.1 |
| 20260505152244 | 13 | 207 | 0.0 | 0.0 | 0.00 | 0.00 | 0.08 | 87 | 1020.1 |
| 20260505151844 | 13 | 270 | 0.0 | 0.0 | 0.00 | 0.00 | 0.08 | 87 | 1020.0 |
| 20260505151444 | 13 | 270 | 0.0 | 0.0 | 0.00 | 0.00 | 0.08 | 86 | 1020.0 |
| 20260505151044 | 13 | 243 | 0.0 | 1.6 | 0.00 | 0.00 | 0.08 | 87 | 1019.9 |
| 20260505150644 | 13 | 225 | 0.0 | 1.6 | 0.00 | 0.00 | 0.08 | 86 | 1019.9 |
| 20260505150244 | 13 | 299 | 0.0 | 0.0 | 0.00 | 0.00 | 0.08 | 86 | 1019.9 |